Regional Weather Roundup
Issued by NWS

Home | Current Version | Previous Version | Text Only | Print | Product List | Glossary Off
Versions: 1 2 3 4 5 6 7 8 9 10 11 12 13 14 15 16 17 18 19 20 21 22 23 24 25 26 27 28 29 30 31 32 33 34 35 36 37 38 39 40 41 42 43 44 45 46 47 48 49 50

086
ASUS44 KLIX 212101
RWRLA
LOUISIANA WEATHER ROUNDUP
NATIONAL WEATHER SERVICE NEW ORLEANS LA
400 PM CDT MON JUL 21 2014

NOTE: "FAIR" INDICATES FEW OR NO CLOUDS BELOW 12,000 FEET WITH NO
      SIGNIFICANT WEATHER AND/OR OBSTRUCTIONS TO VISIBILITY.
      SKY/WX - SKY CONDITION AND SIGNIFICANT WEATHER.
      TMP - AIR TEMPERATURE.    DP   - DEWPOINT TEMPERATURE.
      RH  - RELATIVE HUMIDITY.  PRES - PRESSURE.
      HX  - HEAT INDEX.         WCI  - WIND CHILL INDEX.

*  THESE STATIONS ARE NOT NWS OR FAA STATIONS AND ARE NOT UNDER
   NWS QUALITY CONTROL.

LAZ040-048-061>063-065-066-069-212200-
SOUTHEAST LOUISIANA

CITY           SKY/WX    TMP DP  RH WIND       PRES   REMARKS
N.O. AUDUBON     N/A     93  71  48 MISG        N/A  HX 100
N.O. INTL ARPT MOSUNNY   89  70  53 NW8       30.00F
N.O. LAKEFRONT SUNNY     88  71  57 N6        30.00F
N.O. DOWNTOWN* FAIR      90  70  51 NW5       30.00F HX  95
SLIDELL        MOSUNNY   89  69  51 NW6       29.99F
BATON ROUGE    MOSUNNY   89  71  55 VRB6      30.00F HX  95
BOOTHVILLE     MOSUNNY   86  75  69 NE5       30.01F HX  95
BELLE CHASSE   PTSUNNY   89  68  49 VRB7      29.99F
BOGALUSA*      FAIR      89  67  48 N6        30.01F
GALLIANO*      NOT AVBL
NEW ROADS*     FAIR      88  72  60 NW7       30.01S HX  95
GONZALES*      FAIR      90  73  57 NW6       29.99F HX  97
HAMMOND*       MOSUNNY   90  66  45 NW7       30.02S
HOUMA*         PTSUNNY   91  70  49 NW5       30.00F HX  97
PORT FOURCHON* CLEAR     86  75  70 W9        30.02F HX  95

$$

LAZ041-044-053-054-212200-
SOUTHWEST LOUISIANA

CITY           SKY/WX    TMP DP  RH WIND       PRES   REMARKS
LAKE CHARLES   CLOUDY    90  77  65 SE6       29.99F HX 103
LAFAYETTE      MOSUNNY   91  73  55 NE9       30.00F HX  99
PATTERSON      NOT AVBL
SALT POINT       N/A     90  79  70 W9        29.99F HX 106
NEW IBERIA     PTSUNNY   91  74  57 N8        30.00F HX 100
CHENAULT AIRPK MOSUNNY   91  73  55 N5        30.00F HX 100

$$

LAZ027-028-212200-
CENTRAL LOUISIANA

CITY           SKY/WX    TMP DP  RH WIND       PRES   REMARKS
FORT POLK      SUNNY     90  71  53 VRB5      30.01F HX  96
ALEXANDRIA INT SUNNY     89  72  56 NW8       29.99F HX  96
ALEXANDRIA     MOSUNNY   92  70  48 VRB7      30.01F HX  97

$$

LAZ001-002-212200-
NORTHWEST LOUISIANA

CITY           SKY/WX    TMP DP  RH WIND       PRES   REMARKS
SHREVEPORT     MOSUNNY   89  71  55 VRB5      30.03F HX  95
BARKSDALE AFB  MOSUNNY   87  70  56 NE5       30.03F
DTN SHREVEPORT PTSUNNY   87  69  54 NE3       30.03F

$$

LAZ014-016-212200-
NORTHEAST LOUISIANA

CITY           SKY/WX    TMP DP  RH WIND       PRES   REMARKS
MONROE         MOSUNNY   88  66  48 NE6       30.03F
TALLULAH       MOSUNNY   89  71  55 VRB6      30.02F HX  95

$$




USA.gov is the U.S. government's official web portal to all federal, state and local government web resources and services.